Find Starlink 1497

NORAD ID: 45781 Int'l Des: 2020-038 Owner: SPXS Country: US Constellation: starlink decayed
LEOCIRCULAR
Vis

Historical Track — Feb 12, 2026

正在加载3D地球...

关于 Starlink 1497

正在加载描述...

高度历史

Loading altitude history...

两行轨道根数

1 45781U 20038BD 26043.42871565 .15800035 12699-4 16747-3 0 9992
2 45781 53.0082 203.1300 0004619 305.8625 54.1996 16.50362636314441
Epoch: Feb 12, 2026 • Age: 2151 hours

当前状态

Position data unavailable
发射日期 Jun 13, 2020
运行时间 5.9 years
衰减日期 Feb 12, 2026
类型 internet

技术详情

分类 Payload
质量 260.00 kg
干质量 248.00 kg
总质量 260.00 kg
长度 0.20 m
直径 2.80 m
跨度 9.00 m
形状 Box + pan
制造商 SPXS
平台类型 Starlink
阶段状态 Unknown Transfer Status
所有者/国家 SPXS/US

Most Searched